KE7MWT Weather Reports


Display with metric or nautical units.
time (UTC)temp
F
wind
direction
speed
MPH
gust
MPH
rain 1hr
in
rain 24hr
in
rain mn
in
humidity
%
barometer
mb
20260831231822 89 84 2.0 5.0 0.00 0.24 0.24 43 1016.5
20260831231527 88 30 2.0 8.0 0.00 0.24 0.24 45 1013.2
20260831231313 88 175 1.0 8.0 0.00 0.24 0.24 42 1016.7
20260831230819 88 76 4.0 8.0 0.00 0.24 0.24 42 1016.8
20260831230351 89 105 1.0 5.0 0.00 0.24 0.24 44 1016.8
20260831230004 89 143 2.0 6.0 0.00 0.24 0.24 48 1013.5
20260831225816 89 120 2.0 6.0 0.00 0.24 0.24 45 1016.9
20260831225328 89 86 1.0 5.0 0.00 0.24 0.24 45 1017.0
20260831224839 89 135 2.0 5.0 0.00 0.24 0.24 44 1017.2
20260831224510 89 97 1.0 6.0 0.00 0.24 0.24 47 1013.8
20260831224327 90 159 2.0 6.0 0.00 0.24 0.24 43 1017.2
20260831223814 89 144 1.0 6.0 0.00 0.24 0.24 45 1017.2
20260831223343 89 123 1.0 8.0 0.00 0.24 0.24 46 1017.2
20260831223018 88 123 5.0 8.0 0.00 0.24 0.24 48 1013.8
20260831222850 89 103 2.0 8.0 0.00 0.24 0.24 44 1017.3
20260831222319 89 105 1.0 7.0 0.00 0.24 0.24 46 1017.5
20260831221847 89 126 1.0 7.0 0.00 0.24 0.24 46 1017.7
20260831221532 87 94 2.0 7.0 0.00 0.24 0.24 50 1014.3
20260831221317 88 220 1.0 7.0 0.00 0.24 0.24 46 1017.9
20260831220824 88 131 2.0 7.0 0.00 0.24 0.24 45 1018.0
20260831220334 88 152 1.0 7.0 0.00 0.24 0.24 45 1018.1
20260831220033 88 143 2.0 8.0 0.00 0.24 0.24 49 1014.9
20260831215819 88 71 2.0 8.0 0.00 0.24 0.24 46 1018.3
20260831215350 88 116 1.0 8.0 0.00 0.24 0.24 46 1018.6
20260831214816 88 109 2.0 9.0 0.00 0.24 0.24 46 1018.6
20260831214527 87 101 4.0 11.0 0.00 0.24 0.24 51 1015.2
20260831214328 87 63 4.0 11.0 0.00 0.24 0.24 48 1018.7
20260831213814 87 98 5.0 10.0 0.00 0.24 0.24 50 1018.8
20260831213328 87 88 5.0 10.0 0.00 0.24 0.24 50 1018.9
20260831213014 87 91 3.0 10.0 0.00 0.24 0.24 54 1015.6
20260831212836 87 99 2.0 9.0 0.00 0.24 0.24 49 1019.0
20260831212326 86 149 2.0 9.0 0.00 0.24 0.24 50 1019.1
20260831211814 86 102 2.0 9.0 0.00 0.24 0.24 50 1019.3
20260831211524 85 153 1.0 9.0 0.00 0.24 0.24 54 1015.9
20260831211325 86 106 2.0 9.0 0.00 0.24 0.24 52 1019.3
20260831210854 86 115 2.0 10.0 0.00 0.24 0.24 51 1019.5
20260831210324 86 116 2.0 10.0 0.00 0.24 0.24 50 1019.5
20260831210029 85 90 1.0 10.0 0.00 0.24 0.24 56 1016.1
20260831205851 86 91 4.0 10.0 0.00 0.24 0.24 52 1019.6
20260831205322 86 130 2.0 5.0 0.00 0.24 0.24 55 1019.7
20260831204830 85 93 2.0 7.0 0.00 0.24 0.24 54 1019.8
20260831204528 84 134 2.0 7.0 0.00 0.24 0.24 58 1016.4
20260831204322 85 65 2.0 7.0 0.00 0.24 0.24 56 1019.9
20260831203814 84 188 2.0 8.0 0.00 0.24 0.24 56 1019.9
20260831203325 84 98 3.0 8.0 0.00 0.24 0.24 56 1019.9
20260831203011 83 126 2.0 9.0 0.00 0.24 0.24 61 1016.6
20260831202813 84 115 2.0 9.0 0.00 0.24 0.24 58 1020.0
20260831202324 83 117 3.0 13.0 0.00 0.24 0.24 60 1019.9
20260831201832 83 80 5.0 13.0 0.00 0.24 0.24 60 1019.9
20260831201528 82 94 6.0 11.0 0.00 0.24 0.24 64 1016.5
20260831201323 83 47 4.0 11.0 0.00 0.24 0.24 61 1020.0
20260831200831 82 87 1.0 9.0 0.00 0.24 0.24 63 1020.1
20260831200323 81 96 2.0 9.0 0.00 0.24 0.24 64 1020.0
20260831200038 81 85 2.0 7.0 0.00 0.24 0.24 67 1016.6
20260831195815 81 117 2.0 6.0 0.00 0.24 0.24 64 1020.1
20260831195347 80 139 3.0 7.0 0.00 0.24 0.24 65 1020.1
20260831194814 78 103 2.0 7.0 0.00 0.24 0.24 67 1020.3
20260831194529 78 159 2.0 8.0 0.00 0.24 0.24 71 1016.9
20260831194346 78 124 2.0 8.0 0.00 0.24 0.24 67 1020.3
20260831193814 78 168 2.0 8.0 0.00 0.24 0.24 66 1020.3
20260831193325 78 107 3.0 6.0 0.00 0.24 0.24 67 1020.3
20260831193034 78 130 1.0 4.0 0.00 0.24 0.24 71 1016.8
20260831192814 78 137 1.0 4.0 0.00 0.24 0.24 68 1020.2
20260831192324 78 109 1.0 6.0 0.00 0.24 0.24 69 1020.2
20260831191813 78 124 2.0 7.0 0.00 0.24 0.24 69 1020.3
20260831191515 77 103 2.0 7.0 0.00 0.24 0.24 73 1016.8
20260831191325 78 124 2.0 7.0 0.00 0.24 0.24 68 1020.3
20260831190833 78 106 2.0 6.0 0.00 0.24 0.24 68 1020.3
20260831190330 78 143 3.0 7.0 0.00 0.24 0.24 71 1020.2
20260831190041 77 85 2.0 5.0 0.00 0.24 0.24 76 1016.9
20260831185817 78 127 2.0 5.0 0.00 0.24 0.24 73 1020.5
20260831185327 78 182 1.0 5.0 0.00 0.24 0.24 73 1020.6
20260831184815 78 142 3.0 6.0 0.00 0.24 0.24 73 1020.4
20260831184511 77 114 2.0 4.0 0.00 0.24 0.24 77 1016.8
20260831184327 78 128 2.0 4.0 0.00 0.24 0.24 73 1020.3
20260831183815 78 135 2.0 4.0 0.00 0.24 0.24 72 1020.3
20260831183326 78 129 2.0 4.0 0.00 0.24 0.24 71 1020.3
20260831183007 77 140 2.0 6.0 0.00 0.24 0.24 74 1016.9
20260831182814 78 130 2.0 6.0 0.00 0.24 0.24 70 1020.3
20260831182346 78 151 1.0 6.0 0.00 0.24 0.24 69 1020.4
20260831181816 78 115 2.0 4.0 0.00 0.24 0.24 69 1020.5
20260831181507 77 140 1.0 4.0 0.00 0.24 0.24 73 1017.1
20260831181327 78 149 2.0 4.0 0.00 0.24 0.24 70 1020.6
20260831180815 78 103 2.0 4.0 0.00 0.24 0.24 71 1020.7
20260831180325 78 155 2.0 4.0 0.00 0.24 0.24 75 1020.6
20260831180006 77 138 1.0 4.0 0.00 0.24 0.24 78 1017.2
20260831175832 78 141 1.0 4.0 0.00 0.24 0.24 75 1020.5
20260831175323 78 123 1.0 2.0 0.00 0.24 0.24 77 1020.8
20260831174829 77 105 1.0 2.0 0.00 0.24 0.24 77 1020.9
20260831174509 76 116 0.0 4.0 0.00 0.24 0.24 81 1017.5
20260831174320 77 112 1.0 5.0 0.00 0.24 0.24 78 1021.1
20260831173828 77 99 2.0 6.0 0.00 0.24 0.24 77 1021.1
20260831173320 77 88 3.0 6.0 0.01 0.24 0.24 77 1021.2
20260831173004 76 119 2.0 8.0 0.02 0.24 0.24 81 1017.7
20260831172828 76 98 1.0 8.0 0.02 0.24 0.24 79 1021.1
20260831172323 76 78 2.0 8.0 0.03 0.24 0.24 79 1021.1
20260831171830 76 95 3.0 10.0 0.04 0.24 0.24 80 1021.0
20260831171509 76 123 2.0 10.0 0.04 0.24 0.24 83 1017.4
20260831171321 76 84 3.0 10.0 0.05 0.24 0.24 80 1020.8
20260831170829 76 83 2.0 8.0 0.06 0.24 0.24 80 1020.7
20260831170341 76 90 4.0 8.0 0.07 0.24 0.24 80 1020.8
20260831170007 75 95 2.0 7.0 0.08 0.24 0.24 85 1017.3
20260831165827 76 86 2.0 6.0 0.08 0.24 0.24 81 1020.7
20260831165315 76 91 1.0 3.0 0.10 0.24 0.24 82 1020.8
20260831164822 75 74 1.0 2.0 0.10 0.24 0.24 82 1020.8
20260831164506 75 28 0.0 4.0 0.11 0.24 0.24 85 1017.3
20260831164313 75 344 0.0 4.0 0.12 0.24 0.24 82 1020.7
20260831163824 75 90 1.0 4.0 0.13 0.24 0.24 83 1020.6
20260831163315 75 83 1.0 3.0 0.12 0.23 0.23 82 1020.6
20260831163026 74 72 0.0 5.0 0.11 0.22 0.22 87 1017.1
20260831162823 75 348 0.0 5.0 0.11 0.22 0.22 82 1020.6
20260831162313 75 83 1.0 9.0 0.11 0.21 0.21 82 1020.5
20260831161839 75 90 3.0 9.0 0.10 0.20 0.20 82 1020.2
20260831161512 74 36 5.0 9.0 0.10 0.20 0.20 85 1016.9
20260831161329 75 63 4.0 8.0 0.10 0.19 0.19 82 1020.3
20260831160817 75 80 4.0 7.0 0.11 0.18 0.18 82 1020.5
20260831160327 75 90 1.0 4.0 0.13 0.17 0.17 83 1020.6
20260831160008 75 62 0.0 3.0 0.13 0.16 0.16 86 1017.3
20260831155815 75 43 0.0 3.0 0.14 0.15 0.15 83 1020.7
20260831155326 75 24 1.0 3.0 0.14 0.14 0.14 83 1020.8
20260831154817 75 24 1.0 4.0 0.13 0.13 0.13 83 1020.7
20260831154522 75 10 1.0 4.0 0.13 0.13 0.13 86 1017.3
20260831154347 75 30 1.0 4.0 0.12 0.12 0.12 82 1020.7
20260831153831 75 36 0.0 1.0 0.11 0.11 0.11 82 1020.7
20260831153342 75 66 0.0 2.0 0.11 0.11 0.11 82 1020.6
20260831153009 74 28 1.0 2.0 0.11 0.11 0.11 85 1017.2
20260831152830 75 40 1.0 3.0 0.10 0.10 0.10 81 1020.7
20260831152321 75 342 0.0 3.0 0.10 0.10 0.10 79 1020.5
20260831151828 75 75 1.0 4.0 0.10 0.10 0.10 79 1020.4
20260831151520 74 74 1.0 4.0 0.10 0.10 0.10 84 1017.1
20260831151319 75 86 0.0 7.0 0.09 0.09 0.09 81 1020.5
20260831150826 75 86 1.0 7.0 0.07 0.07 0.07 78 1020.6
20260831150337 76 136 1.0 2.0 0.04 0.04 0.04 77 1020.4
20260831150009 76 122 1.0 8.0 0.03 0.03 0.03 78 1016.7
20260831145823 77 96 1.0 8.0 0.01 0.01 0.01 74 1020.1
20260831145318 78 136 2.0 8.0 0.00 0.00 0.00 71 1019.9
20260831144826 78 125 3.0 8.0 0.00 0.00 0.00 69 1019.8
20260831144520 77 111 3.0 6.0 0.00 0.00 0.00 72 1016.5
20260831144317 78 115 2.0 4.0 0.00 0.00 0.00 69 1020.0
20260831143825 78 119 2.0 5.0 0.00 0.00 0.00 70 1020.4
20260831143352 78 150 2.0 5.0 0.00 0.00 0.00 69 1020.4
20260831143021 78 123 1.0 6.0 0.00 0.00 0.00 72 1016.7
20260831142817 78 136 2.0 5.0 0.00 0.00 0.00 69 1020.1
20260831142329 78 134 2.0 3.0 0.00 0.00 0.00 68 1019.9
20260831141816 78 154 1.0 6.0 0.00 0.00 0.00 68 1019.6
20260831141512 78 97 1.0 6.0 0.00 0.00 0.00 71 1016.0
20260831141327 78 119 2.0 6.0 0.00 0.00 0.00 68 1019.4
20260831140835 78 156 2.0 8.0 0.00 0.00 0.00 68 1019.2
20260831140329 78 111 2.0 10.0 0.00 0.00 0.00 68 1019.1
20260831140030 77 136 5.0 10.0 0.00 0.00 0.00 72 1015.5
20260831135815 78 84 3.0 9.0 0.00 0.00 0.00 68 1018.9
20260831135326 78 103 4.0 11.0 0.00 0.00 0.00 68 1018.7
20260831134814 78 128 3.0 14.0 0.00 0.00 0.00 68 1018.6
20260831134513 78 72 4.0 14.0 0.00 0.00 0.00 71 1015.1
20260831134326 78 112 5.0 14.0 0.00 0.00 0.00 67 1018.5
20260831133833 79 119 3.0 13.0 0.00 0.00 0.00 67 1018.5
20260831133323 79 107 4.0 11.0 0.00 0.00 0.00 67 1018.5
20260831133011 79 80 3.0 11.0 0.00 0.00 0.00 69 1014.9
20260831132829 79 166 4.0 11.0 0.00 0.00 0.00 66 1018.3
20260831132340 80 130 2.0 11.0 0.00 0.00 0.00 64 1018.1
20260831131825 80 96 3.0 10.0 0.00 0.00 0.00 63 1018.1
20260831131528 80 95 4.0 10.0 0.00 0.00 0.00 66 1014.6
20260831131315 80 132 3.0 10.0 0.00 0.00 0.00 62 1018.0
20260831130842 80 78 2.0 10.0 0.00 0.00 0.00 62 1017.8
20260831130317 81 115 2.0 10.0 0.00 0.00 0.00 60 1017.7
20260831130029 81 113 4.0 10.0 0.00 0.00 0.00 63 1014.3
20260831125823 81 93 2.0 4.0 0.00 0.00 0.00 59 1017.7
20260831125314 81 81 1.0 3.0 0.00 0.00 0.00 59 1017.8
20260831124822 81 80 2.0 3.0 0.00 0.00 0.00 60 1017.7
20260831124514 80 178 0.0 2.0 0.00 0.00 0.00 64 1014.1
20260831124314 81 194 0.0 2.0 0.00 0.00 0.00 60 1017.5
20260831123821 81 201 0.0 4.0 0.00 0.00 0.00 60 1017.5
20260831123333 81 216 1.0 4.0 0.00 0.00 0.00 59 1017.3
20260831123019 81 251 1.0 4.0 0.00 0.00 0.00 61 1013.7
20260831122840 81 221 1.0 4.0 0.00 0.00 0.00 58 1017.1
20260831122329 81 237 1.0 3.0 0.00 0.00 0.00 58 1017.1
20260831121820 81 241 1.0 2.0 0.00 0.00 0.00 58 1017.0
20260831121516 80 267 1.0 3.0 0.00 0.00 0.00 61 1013.5
20260831121350 81 211 1.0 3.0 0.00 0.00 0.00 58 1016.9
20260831120817 81 197 0.0 3.0 0.00 0.00 0.00 59 1016.8
20260831120328 81 179 0.0 2.0 0.00 0.00 0.00 59 1016.7
20260831120021 80 175 0.0 2.0 0.00 0.00 0.00 63 1013.1
20260831115815 80 207 0.0 2.0 0.00 0.00 0.00 60 1016.5
20260831115327 81 259 0.0 2.0 0.00 0.00 0.00 60 1016.3
20260831114814 80 265 0.0 2.0 0.00 0.00 0.00 61 1016.4
20260831114517 80 265 0.0 2.0 0.00 0.00 0.00 65 1012.9
20260831114325 80 265 0.0 2.0 0.00 0.00 0.00 61 1016.4
20260831113833 80 265 1.0 2.0 0.00 0.00 0.00 61 1016.4
20260831113324 80 182 0.0 2.0 0.00 0.00 0.00 62 1016.3
20260831113017 79 182 1.0 2.0 0.00 0.00 0.00 66 1012.7
20260831112815 80 181 1.0 2.0 0.00 0.00 0.00 63 1016.1
20260831112327 80 194 0.0 3.0 0.00 0.00 0.00 62 1016.0
20260831111814 80 194 2.0 3.0 0.00 0.00 0.00 62 1015.9
20260831111520 79 135 0.0 2.0 0.00 0.00 0.00 66 1012.4
20260831111325 80 135 1.0 2.0 0.00 0.00 0.00 62 1015.8
20260831110832 80 133 0.0 2.0 0.00 0.00 0.00 62 1015.8
20260831110325 80 124 0.0 2.0 0.00 0.00 0.00 62 1015.9
20260831110021 80 112 0.0 2.0 0.00 0.00 0.00 66 1012.5
20260831105831 80 112 0.0 2.0 0.00 0.00 0.00 63 1015.9
20260831105320 80 99 1.0 4.0 0.00 0.00 0.00 62 1015.8
20260831104828 80 92 2.0 7.0 0.00 0.00 0.00 62 1015.9
20260831104521 80 99 2.0 6.0 0.00 0.00 0.00 64 1012.4
20260831104319 81 115 3.0 6.0 0.00 0.00 0.00 60 1015.9
20260831103847 81 98 2.0 8.0 0.00 0.00 0.00 57 1015.6
20260831103321 82 94 2.0 7.0 0.00 0.00 0.00 54 1015.3
20260831103021 81 91 1.0 5.0 0.00 0.00 0.00 57 1011.7
20260831102829 82 99 1.0 5.0 0.00 0.00 0.00 54 1015.1
20260831102320 82 116 2.0 4.0 0.00 0.00 0.00 53 1014.8
20260831101827 82 57 2.0 9.0 0.00 0.00 0.00 53 1014.6
20260831101518 81 59 2.0 9.0 0.00 0.00 0.00 56 1011.2
20260831101319 82 93 2.0 9.0 0.00 0.00 0.00 53 1014.7
20260831100845 82 52 2.0 9.0 0.00 0.00 0.00 53 1014.7
20260831100314 82 31 3.0 9.0 0.00 0.00 0.00 54 1014.9
20260831100019 82 77 4.0 9.0 0.00 0.00 0.00 60 1011.6
20260831095822 82 78 5.0 9.0 0.00 0.00 0.00 56 1015.1
20260831095314 83 91 1.0 8.0 0.00 0.00 0.00 55 1015.2
20260831094824 83 132 2.0 8.0 0.00 0.00 0.00 53 1015.2
20260831094520 83 323 0.0 2.0 0.00 0.00 0.00 55 1011.7
20260831094315 83 323 0.0 2.0 0.00 0.00 0.00 52 1015.3
20260831093823 83 309 0.0 2.0 0.00 0.00 0.00 52 1015.4
20260831093335 83 309 1.0 2.0 0.00 0.00 0.00 51 1015.3
20260831093024 83 63 0.0 3.0 0.00 0.00 0.00 54 1011.9
20260831092821 83 65 1.0 5.0 0.00 0.00 0.00 51 1015.4
20260831092332 83 35 1.0 5.0 0.00 0.00 0.00 50 1015.3
20260831091818 83 355 2.0 4.0 0.00 0.00 0.00 51 1015.4
20260831091523 83 17 1.0 6.0 0.00 0.00 0.00 55 1012.0
20260831091347 83 75 2.0 6.0 0.00 0.00 0.00 52 1015.5
20260831090813 83 65 1.0 6.0 0.00 0.00 0.00 52 1015.4
20260831090325 83 76 3.0 9.0 0.00 0.00 0.00 52 1015.4
20260831090023 82 77 2.0 9.0 0.00 0.00 0.00 55 1012.1
20260831085816 83 90 2.0 9.0 0.00 0.00 0.00 51 1015.6
20260831085327 83 71 2.0 7.0 0.00 0.00 0.00 51 1015.8
20260831084813 83 69 2.0 7.0 0.00 0.00 0.00 52 1015.9
20260831084523 82 99 1.0 12.0 0.00 0.00 0.00 56 1012.5
20260831084323 83 29 1.0 12.0 0.00 0.00 0.00 52 1016.1
20260831083830 83 82 2.0 12.0 0.00 0.00 0.00 52 1016.1
20260831083342 83 17 2.0 10.0 0.00 0.00 0.00 52 1016.1
20260831083023 83 17 2.0 7.0 0.00 0.00 0.00 55 1012.8
20260831082827 83 59 1.0 7.0 0.00 0.00 0.00 52 1016.2
20260831082317 83 64 2.0 8.0 0.00 0.00 0.00 53 1016.3
20260831081825 83 50 3.0 10.0 0.00 0.00 0.00 52 1016.3
20260831081523 83 101 3.0 10.0 0.00 0.00 0.00 55 1012.8
20260831081336 83 134 4.0 10.0 0.00 0.00 0.00 51 1016.2
20260831080821 84 84 1.0 16.0 0.00 0.00 0.00 51 1016.2
20260831080317 84 360 6.0 16.0 0.00 0.00 0.00 51 1016.1
20260831080033 83 336 8.0 16.0 0.00 0.00 0.00 55 1012.8
20260831075844 84 351 6.0 13.0 0.00 0.00 0.00 52 1016.3
20260831075333 83 324 2.0 10.0 0.00 0.00 0.00 53 1016.6
20260831074840 83 246 1.0 15.0 0.00 0.00 0.00 54 1016.5
20260831074524 83 9 3.0 17.0 0.00 0.00 0.00 58 1012.8
20260831074329 83 22 2.0 17.0 0.00 0.00 0.00 55 1016.2
20260831073817 83 348 6.0 17.0 0.00 0.00 0.00 55 1015.8
20260831073327 84 346 4.0 15.0 0.00 0.00 0.00 55 1016.0
20260831073029 83 315 4.0 15.0 0.00 0.00 0.00 58 1012.1
20260831072834 84 89 5.0 15.0 0.00 0.00 0.00 55 1015.4
20260831072325 84 145 5.0 13.0 0.00 0.00 0.00 55 1015.4
20260831071832 84 70 3.0 11.0 0.00 0.00 0.00 55 1015.9
20260831071524 84 333 4.0 13.0 0.00 0.00 0.00 59 1012.7
20260831071325 85 332 4.0 13.0 0.00 0.00 0.00 55 1016.2
20260831070816 85 360 5.0 13.0 0.00 0.00 0.00 54 1016.3
20260831070329 85 348 5.0 14.0 0.00 0.00 0.00 53 1016.1
20260831070027 85 45 3.0 15.0 0.00 0.00 0.00 56 1012.3
20260831065816 86 5 7.0 15.0 0.00 0.00 0.00 51 1015.8
20260831065347 85 355 9.0 15.0 0.00 0.00 0.00 52 1015.6
20260831064814 85 17 5.0 16.0 0.00 0.00 0.00 53 1015.6
20260831064525 84 331 8.0 16.0 0.00 0.00 0.00 57 1012.4
20260831064325 85 342 6.0 13.0 0.00 0.00 0.00 54 1016.0
20260831063833 85 10 7.0 13.0 0.00 0.00 0.00 53 1015.8
20260831063343 85 345 4.0 11.0 0.00 0.00 0.00 52 1015.5
20260831063025 84 9 5.0 10.0 0.00 0.00 0.00 56 1011.9
20260831062829 85 18 4.0 11.0 0.00 0.00 0.00 52 1015.4
20260831062319 85 318 3.0 13.0 0.00 0.00 0.00 52 1015.2
20260831061826 85 360 5.0 13.0 0.00 0.00 0.00 52 1015.4
20260831061531 85 18 3.0 13.0 0.00 0.00 0.00 55 1011.9
20260831061321 85 355 5.0 13.0 0.00 0.00 0.00 52 1015.4
20260831060829 85 323 5.0 13.0 0.00 0.00 0.00 52 1015.0
20260831060320 85 5 5.0 10.0 0.00 0.00 0.00 54 1015.2
20260831060030 85 352 4.0 9.0 0.00 0.00 0.00 55 1011.7
20260831055827 85 335 4.0 9.0 0.00 0.00 0.00 52 1015.0
20260831055318 85 292 2.0 12.0 0.00 0.00 0.00 51 1014.4
20260831054825 86 217 5.0 12.0 0.00 0.00 0.00 50 1014.4
20260831054527 86 221 4.0 10.0 0.00 0.00 0.00 54 1011.0
20260831054316 87 232 3.0 10.0 0.00 0.00 0.00 50 1014.4
20260831053822 88 215 4.0 11.0 0.00 0.00 0.00 47 1014.4
20260831053313 89 229 6.0 12.0 0.00 0.00 0.00 43 1014.4
20260831053030 88 250 4.0 11.0 0.00 0.00 0.00 47 1011.0
20260831052819 89 257 4.0 11.0 0.00 0.00 0.00 43 1014.3
20260831052314 88 246 4.0 11.0 0.00 0.00 0.00 43 1014.3
20260831051822 88 260 3.0 8.0 0.00 0.00 0.00 45 1014.2
20260831051532 87 286 4.0 8.0 0.00 0.00 0.00 49 1010.8
20260831051353 88 265 5.0 8.0 0.00 0.00 0.00 46 1014.2
20260831050819 87 226 2.0 10.0 0.00 0.00 0.00 50 1014.1
20260831050352 86 242 5.0 15.0 0.00 0.00 0.00 50 1014.3
20260831050029 86 198 6.0 20.0 0.00 0.00 0.00 54 1010.8
20260831045818 86 224 7.0 20.0 0.00 0.00 0.00 51 1014.3
20260831045329 85 228 8.0 15.0 0.00 0.00 0.00 54 1014.4
20260831044835 85 278 6.0 14.0 0.00 0.00 0.00 56 1014.6
20260831044527 85 221 5.0 12.0 0.00 0.00 0.00 60 1011.2
20260831044325 86 211 4.0 12.0 0.00 0.00 0.00 56 1014.7
20260831043832 87 192 7.0 13.0 0.00 0.00 0.00 54 1014.8
20260831043323 89 248 6.0 19.0 0.00 0.00 0.00 48 1014.5
20260831043030 90 286 8.0 20.0 0.00 0.00 0.00 51 1011.4
20260831042814 91 199 11.0 20.0 0.00 0.00 0.00 47 1015.0
20260831042325 92 219 3.0 11.0 0.00 0.00 0.00 44 1014.2
20260831041813 92 227 6.0 15.0 0.00 0.00 0.00 43 1014.3
20260831041527 92 215 5.0 10.0 0.00 0.00 0.00 46 1010.9
20260831041407 92 244 4.0 15.0 0.00 0.00 0.00 42 1014.2
20260831041325 92 244 4.0 15.0 0.00 0.00 0.00 42 1014.2
20260831040830 92 221 5.0 15.0 0.00 0.00 0.00 42 1014.2
20260831040321 92 248 3.0 15.0 0.00 0.00 0.00 41 1014.2
20260831040031 92 219 7.0 15.0 0.00 0.00 0.00 44 1010.8
20260831035828 93 219 7.0 15.0 0.00 0.00 0.00 40 1014.3
20260831035319 93 211 6.0 16.0 0.00 0.00 0.00 40 1014.2
20260831034847 93 212 6.0 16.0 0.00 0.00 0.00 39 1014.0
20260831034527 93 200 8.0 17.0 0.00 0.00 0.00 42 1010.5
20260831034316 95 196 5.0 17.0 0.00 0.00 0.00 38 1014.0
20260831033823 97 163 9.0 17.0 0.00 0.00 0.00 35 1013.9
20260831033314 98 277 0.0 2.0 0.00 0.00 0.00 35 1013.2
20260831033028 98 314 0.0 2.0 0.00 0.00 0.00 37 1009.6
20260831032825 98 330 0.0 2.0 0.00 0.00 0.00 34 1012.9
20260831032316 99 330 0.0 2.0 0.00 0.00 0.00 33 1012.9
20260831031823 98 330 0.0 2.0 0.00 0.00 0.00 33 1012.9
20260831031529 98 352 0.0 2.0 0.00 0.00 0.00 38 1009.4
20260831031314 99 355 0.0 2.0 0.00 0.00 0.00 34 1012.8
20260831030821 99 355 0.0 2.0 0.00 0.00 0.00 33 1012.7
20260831030313 100 355 0.0 2.0 0.00 0.00 0.00 32 1012.7
20260831030005 99 352 0.0 2.0 0.00 0.00 0.00 35 1009.2
20260831025820 100 355 0.0 2.0 0.00 0.00 0.00 32 1012.6
20260831025351 99 355 0.0 2.0 0.00 0.00 0.00 32 1012.5
20260831024817 99 355 0.0 2.0 0.00 0.00 0.00 32 1012.5
20260831024515 99 352 0.0 2.0 0.00 0.00 0.00 35 1009.1
20260831024328 100 355 0.0 2.0 0.00 0.00 0.00 31 1012.4
20260831023819 100 9 0.0 2.0 0.00 0.00 0.00 31 1012.3
20260831023330 100 355 0.0 2.0 0.00 0.00 0.00 31 1012.3
20260831023019 99 352 1.0 2.0 0.00 0.00 0.00 34 1008.7
20260831022817 99 21 0.0 2.0 0.00 0.00 0.00 32 1012.2
20260831022328 100 40 0.0 2.0 0.00 0.00 0.00 31 1012.1
20260831021815 100 73 0.0 2.0 0.00 0.00 0.00 31 1012.0
20260831021528 100 5 0.0 2.0 0.00 0.00 0.00 34 1008.3
20260831021326 100 5 1.0 2.0 0.00 0.00 0.00 30 1011.9
20260831020813 100 9 1.0 2.0 0.00 0.00 0.00 31 1011.7
20260831020325 100 355 0.0 2.0 0.00 0.00 0.00 31 1011.8
20260831020031 100 5 0.0 2.0 0.00 0.00 0.00 34 1008.1
20260831015815 101 5 0.0 2.0 0.00 0.00 0.00 30 1011.7
20260831015326 102 355 1.0 2.0 0.00 0.00 0.00 29 1011.7
20260831014813 102 360 1.0 2.0 0.00 0.00 0.00 29 1011.6
20260831014522 101 17 1.0 2.0 0.00 0.00 0.00 32 1008.0
20260831014325 102 338 1.0 1.0 0.00 0.00 0.00 29 1011.4
20260831013851 102 284 0.0 2.0 0.00 0.00 0.00 29 1011.4
20260831013341 103 322 0.0 4.0 0.00 0.00 0.00 28 1011.3
20260831013017 102 326 2.0 4.0 0.00 0.00 0.00 31 1007.7
20260831012827 102 299 2.0 4.0 0.00 0.00 0.00 28 1011.2
20260831012318 103 26 2.0 4.0 0.00 0.00 0.00 28 1011.1
20260831011846 103 340 2.0 4.0 0.00 0.00 0.00 28 1011.2
20260831011534 103 5 1.0 3.0 0.00 0.00 0.00 31 1007.8
20260831011315 104 329 1.0 3.0 0.00 0.00 0.00 27 1011.2
20260831010822 104 35 1.0 3.0 0.00 0.00 0.00 27 1011.3
20260831010315 103 303 1.0 3.0 0.00 0.00 0.00 27 1011.4
20260831010028 103 342 1.0 6.0 0.00 0.00 0.00 31 1007.9
20260831005825 103 360 0.0 6.0 0.00 0.00 0.00 27 1011.4
20260831005316 104 333 3.0 6.0 0.00 0.00 0.00 27 1011.6
20260831004823 104 315 2.0 6.0 0.00 0.00 0.00 27 1011.6
20260831004529 104 271 2.0 7.0 0.00 0.00 0.00 30 1008.0
20260831004314 104 311 2.0 6.0 0.00 0.00 0.00 27 1011.6
20260831003821 104 273 3.0 7.0 0.00 0.00 0.00 27 1011.6
20260831003332 104 240 2.0 6.0 0.00 0.00 0.00 27 1011.6
20260831003015 104 273 1.0 6.0 0.00 0.00 0.00 30 1008.2
20260831002819 105 252 1.0 3.0 0.00 0.00 0.00 27 1011.6
20260831002330 105 179 1.0 3.0 0.00 0.00 0.00 26 1011.6
20260831001817 105 200 2.0 6.0 0.00 0.00 0.00 26 1011.6
20260831001518 104 240 1.0 8.0 0.00 0.00 0.00 30 1008.1
20260831001327 105 227 2.0 8.0 0.00 0.00 0.00 26 1011.7
20260831000818 105 242 3.0 8.0 0.00 0.00 0.00 26 1011.6
20260831000329 105 229 4.0 8.0 0.00 0.00 0.00 27 1011.7
20260831000024 104 213 1.0 7.0 0.00 0.00 0.00 29 1008.3
20260830235816 105 319 2.0 7.0 0.00 0.00 0.00 26 1011.7
20260830235327 105 292 3.0 5.0 0.00 0.00 0.00 26 1011.8
20260830234814 105 345 1.0 8.0 0.00 0.00 0.00 26 1011.7
20260830234537 105 352 3.0 8.0 0.00 0.00 0.00 29 1008.3
20260830234325 106 355 3.0 8.0 0.00 0.00 0.00 27 1011.8
20260830233833 105 282 1.0 4.0 0.00 0.00 0.00 26 1011.8
20260830233323 105 340 1.0 4.0 0.00 0.00 0.00 26 1012.0
20260830233031 104 352 2.0 7.0 0.00 0.00 0.00 29 1008.5
20260830232814 105 17 1.0 7.0 0.00 0.00 0.00 26 1012.0
20260830232318 105 204 3.0 7.0 0.00 0.00 0.00 26 1012.0